Epoch = 2017 July 26.0 TT T = 2017 July 23.63636 TT Peri. = 237.93077 e = 0.3042585 Node = 146.20988 2000.0 q = 2.1952030 AU Incl. = 14.13755 a = 3.1551991 AU n = 0.17585872 P = 5.60 years
m1 = 16.5 + 5 logΔ + 10.0 log r